Time,TemperatureF,DewpointF,PressureIn,WindDirection,WindDirectionDegrees,WindSpeedMPH,WindSpeedGustMPH,Humidity,HourlyPrecipIn,Conditions,Clouds,dailyrainin,SoftwareType,DateUTC
2013-03-12 00:00:00,20.5,14.4,29.80,West,279,0.0,3.0,77,0.00,,CLR,0.00,VWS V14.01,2013-03-12 05:00:00,
2013-03-12 00:05:00,20.3,14.3,29.80,West,279,0.0,0.0,77,0.00,,CLR,0.00,VWS V14.01,2013-03-12 05:05:00,
2013-03-12 00:10:00,20.2,14.2,29.80,West,275,1.0,2.0,77,0.00,,CLR,0.00,VWS V14.01,2013-03-12 05:10:00,
2013-03-12 00:15:00,20.2,14.2,29.80,West,276,0.0,2.0,77,0.00,,CLR,0.00,VWS V14.01,2013-03-12 05:15:00,
2013-03-12 00:20:00,20.2,14.2,29.80,WNW,294,0.0,3.0,77,0.00,,CLR,0.00,VWS V14.01,2013-03-12 05:20:00,
2013-03-12 00:25:00,20.3,14.3,29.80,West,275,2.0,4.0,77,0.00,,CLR,0.00,VWS V14.01,2013-03-12 05:25:00,
2013-03-12 00:30:00,20.5,14.4,29.80,WNW,292,2.0,10.0,77,0.00,,CLR,0.00,VWS V14.01,2013-03-12 05:30:00,
2013-03-12 00:35:00,20.8,14.7,29.80,West,281,0.0,4.0,77,0.00,,CLR,0.00,VWS V14.01,2013-03-12 05:35:00,
2013-03-12 00:40:00,21.0,14.9,29.80,West,280,3.0,4.0,77,0.00,,CLR,0.00,VWS V14.01,2013-03-12 05:40:00,
2013-03-12 00:45:00,21.1,14.7,29.80,West,273,0.0,5.0,76,0.00,,CLR,0.00,VWS V14.01,2013-03-12 05:45:00,
2013-03-12 00:50:00,21.3,14.9,29.80,WNW,282,2.0,10.0,76,0.00,,CLR,0.00,VWS V14.01,2013-03-12 05:50:00,
2013-03-12 00:55:00,21.4,14.7,29.80,WNW,286,4.0,6.0,75,0.00,,CLR,0.00,VWS V14.01,2013-03-12 05:55:00,
2013-03-12 01:00:00,21.4,14.7,29.80,West,272,2.0,5.0,75,0.00,,OVC055,0.00,VWS V14.01,2013-03-12 06:00:00,
2013-03-12 01:05:00,21.6,14.9,29.80,West,269,4.0,5.0,75,0.00,,OVC055,0.00,VWS V14.01,2013-03-12 06:05:00,
2013-03-12 01:10:00,21.8,14.8,29.80,West,267,3.0,7.0,74,0.00,,OVC055,0.00,VWS V14.01,2013-03-12 06:10:00,
2013-03-12 01:15:00,21.9,14.9,29.80,West,279,1.0,7.0,74,0.00,,OVC055,0.00,VWS V14.01,2013-03-12 06:15:00,
2013-03-12 01:20:00,21.9,14.6,29.80,West,269,2.0,6.0,73,0.00,,OVC055,0.00,VWS V14.01,2013-03-12 06:20:00,
2013-03-12 01:25:00,22.1,14.5,29.80,West,281,0.0,5.0,72,0.00,,OVC055,0.00,VWS V14.01,2013-03-12 06:25:00,
2013-03-12 01:30:00,22.1,14.5,29.80,West,261,2.0,4.0,72,0.00,,OVC055,0.00,VWS V14.01,2013-03-12 06:30:00,
2013-03-12 01:35:00,22.1,14.5,29.80,West,275,2.0,5.0,72,0.00,,OVC055,0.00,VWS V14.01,2013-03-12 06:35:00,
2013-03-12 01:40:00,22.2,14.2,29.80,West,280,2.0,5.0,71,0.00,,OVC055,0.00,VWS V14.01,2013-03-12 06:40:00,
2013-03-12 01:45:00,22.2,14.2,29.80,West,277,0.0,3.0,71,0.00,,OVC055,0.00,VWS V14.01,2013-03-12 06:45:00,
2013-03-12 01:50:00,22.2,14.2,29.80,WNW,283,2.0,4.0,71,0.00,,OVC055,0.00,VWS V14.01,2013-03-12 06:50:00,
2013-03-12 01:55:00,22.4,14.1,29.80,WNW,285,2.0,2.0,70,0.00,,OVC055,0.00,VWS V14.01,2013-03-12 06:55:00,
2013-03-12 02:00:00,22.4,14.1,29.80,West,267,0.0,4.0,70,0.00,,OVC055,0.00,VWS V14.01,2013-03-12 07:00:00,
2013-03-12 02:05:00,22.4,13.8,29.80,WSW,250,1.0,3.0,69,0.00,,OVC055,0.00,VWS V14.01,2013-03-12 07:05:00,
2013-03-12 02:10:00,22.4,13.8,29.80,West,281,1.0,10.0,69,0.00,,OVC055,0.00,VWS V14.01,2013-03-12 07:10:00,
2013-03-12 02:15:00,22.4,13.4,29.80,WNW,290,0.0,3.0,68,0.00,,OVC055,0.00,VWS V14.01,2013-03-12 07:15:00,
2013-03-12 02:20:00,22.5,13.6,29.80,West,280,2.0,5.0,68,0.00,,OVC055,0.00,VWS V14.01,2013-03-12 07:20:00,
2013-03-12 02:25:00,22.5,13.6,29.80,WNW,287,2.0,4.0,68,0.00,,OVC055,0.00,VWS V14.01,2013-03-12 07:25:00,
2013-03-12 02:30:00,22.5,13.6,29.79,West,270,2.0,6.0,68,0.00,,OVC055,0.00,VWS V14.01,2013-03-12 07:30:00,
2013-03-12 02:35:00,22.5,13.6,29.79,West,269,6.0,11.0,68,0.00,,OVC055,0.00,VWS V14.01,2013-03-12 07:35:00,
2013-03-12 02:40:00,22.7,13.7,29.79,WSW,254,2.0,9.0,68,0.00,,OVC055,0.00,VWS V14.01,2013-03-12 07:40:00,
2013-03-12 02:45:00,22.7,13.7,29.79,WNW,293,2.0,6.0,68,0.00,,OVC055,0.00,VWS V14.01,2013-03-12 07:45:00,
2013-03-12 02:50:00,22.7,13.4,29.79,West,281,3.0,11.0,67,0.00,,OVC055,0.00,VWS V14.01,2013-03-12 07:50:00,
2013-03-12 02:55:00,22.7,13.4,29.79,West,264,5.0,9.0,67,0.00,,OVC055,0.00,VWS V14.01,2013-03-12 07:55:00,
2013-03-12 03:00:00,22.7,13.7,29.79,West,279,1.0,9.0,68,0.00,,OVC041,0.00,VWS V14.01,2013-03-12 08:00:00,
2013-03-12 03:05:00,22.7,13.7,29.79,WNW,288,1.0,7.0,68,0.00,,OVC041,0.00,VWS V14.01,2013-03-12 08:05:00,
2013-03-12 03:10:00,22.7,13.7,29.79,WNW,286,0.0,4.0,68,0.00,,OVC041,0.00,VWS V14.01,2013-03-12 08:10:00,
2013-03-12 03:15:00,22.7,13.7,29.79,West,271,5.0,5.0,68,0.00,,OVC041,0.00,VWS V14.01,2013-03-12 08:15:00,
2013-03-12 03:20:00,22.7,13.4,29.79,WNW,297,2.0,10.0,67,0.00,,OVC041,0.00,VWS V14.01,2013-03-12 08:20:00,
2013-03-12 03:25:00,22.7,13.4,29.79,WNW,292,1.0,3.0,67,0.00,,---,0.00,VWS V14.01,2013-03-12 08:25:00,
2013-03-12 03:30:00,22.7,13.4,29.79,West,281,2.0,5.0,67,0.00,,OVC041,0.00,VWS V14.01,2013-03-12 08:30:00,
2013-03-12 03:35:00,22.7,13.4,29.79,NNW,329,0.0,4.0,67,0.00,,OVC041,0.00,VWS V14.01,2013-03-12 08:35:00,
2013-03-12 03:40:00,22.7,13.7,29.79,WNW,296,0.0,5.0,68,0.00,,OVC041,0.00,VWS V14.01,2013-03-12 08:40:00,
2013-03-12 03:45:00,22.7,13.7,29.79,WNW,292,1.0,5.0,68,0.00,,---,0.00,VWS V14.01,2013-03-12 08:45:00,
2013-03-12 03:50:00,22.7,13.7,29.79,WNW,292,2.0,7.0,68,0.00,,---,0.00,VWS V14.01,2013-03-12 08:50:00,
2013-03-12 03:55:00,22.7,13.7,29.79,NW,310,3.0,4.0,68,0.00,,OVC041,0.00,VWS V14.01,2013-03-12 08:55:00,
2013-03-12 04:00:00,22.7,13.7,29.80,West,280,3.0,11.0,68,0.00,,OVC041,0.00,VWS V14.01,2013-03-12 09:00:00,
2013-03-12 04:05:00,22.5,13.6,29.80,WNW,292,3.0,11.0,68,0.00,,---,0.00,VWS V14.01,2013-03-12 09:05:00,
2013-03-12 04:10:00,22.5,13.6,29.80,WNW,292,3.0,11.0,68,0.00,,---,0.00,VWS V14.01,2013-03-12 09:10:00,
2013-03-12 04:15:00,22.5,13.6,29.80,NW,315,2.0,4.0,68,0.00,,---,0.00,VWS V14.01,2013-03-12 09:15:00,
2013-03-12 04:20:00,22.5,13.6,29.80,WNW,292,2.0,7.0,68,0.00,,---,0.00,VWS V14.01,2013-03-12 09:20:00,
2013-03-12 04:25:00,22.5,13.9,29.80,NW,315,2.0,7.0,69,0.00,,---,0.00,VWS V14.01,2013-03-12 09:25:00,
2013-03-12 04:27:00,22.7,13.4,29.79,WNW,296,1.0,3.0,67,0.00,,OVC041,0.00,VWS V14.01,2013-03-12 09:27:00,
2013-03-12 04:30:00,22.5,13.9,29.81,WNW,292,0.0,2.0,69,0.00,,---,0.00,VWS V14.01,2013-03-12 09:30:00,
2013-03-12 04:35:00,22.5,13.9,29.81,NW,305,1.0,4.0,69,0.00,,OVC041,0.00,VWS V14.01,2013-03-12 09:35:00,
2013-03-12 04:40:00,22.5,13.9,29.81,NW,315,0.0,3.0,69,0.00,,---,0.00,VWS V14.01,2013-03-12 09:40:00,
2013-03-12 04:45:00,22.5,14.2,29.81,West,270,1.0,9.0,70,0.00,,---,0.00,VWS V14.01,2013-03-12 09:45:00,
2013-03-12 04:47:00,22.7,13.7,29.79,NW,304,0.0,5.0,68,0.00,,OVC041,0.00,VWS V14.01,2013-03-12 09:47:00,
2013-03-12 04:50:00,22.5,14.2,29.81,WNW,299,1.0,3.0,70,0.00,,OVC041,0.00,VWS V14.01,2013-03-12 09:50:00,
2013-03-12 04:52:00,22.7,13.7,29.79,NW,312,1.0,7.0,68,0.00,,OVC041,0.00,VWS V14.01,2013-03-12 09:52:00,
2013-03-12 04:55:00,22.5,14.2,29.81,WNW,292,1.0,6.0,70,0.00,,---,0.00,VWS V14.01,2013-03-12 09:55:00,
2013-03-12 05:00:00,22.4,14.1,29.82,WNW,292,3.0,11.0,70,0.00,,---,0.00,VWS V14.01,2013-03-12 10:00:00,
2013-03-12 05:05:00,22.4,14.1,29.82,WNW,292,2.0,4.0,70,0.00,,---,0.00,VWS V14.01,2013-03-12 10:05:00,
2013-03-12 05:07:00,22.5,13.6,29.80,WNW,286,1.0,10.0,68,0.00,,OVC041,0.00,VWS V14.01,2013-03-12 10:07:00,
2013-03-12 05:10:00,22.4,14.1,29.82,West,269,2.0,10.0,70,0.00,,OVC050,0.00,VWS V14.01,2013-03-12 10:10:00,
2013-03-12 05:12:00,22.5,13.6,29.80,NW,309,1.0,11.0,68,0.00,,OVC041,0.00,VWS V14.01,2013-03-12 10:12:00,
2013-03-12 05:15:00,22.4,14.1,29.83,WNW,292,2.0,12.0,70,0.00,,---,0.00,VWS V14.01,2013-03-12 10:15:00,
2013-03-12 05:17:00,22.5,13.6,29.80,NW,304,2.0,4.0,68,0.00,,OVC041,0.00,VWS V14.01,2013-03-12 10:17:00,
2013-03-12 05:20:00,22.4,14.1,29.83,WNW,292,2.0,10.0,70,0.00,,---,0.00,VWS V14.01,2013-03-12 10:20:00,
2013-03-12 05:22:00,22.5,13.6,29.80,WNW,291,3.0,7.0,68,0.00,,OVC041,0.00,VWS V14.01,2013-03-12 10:22:00,
2013-03-12 05:25:00,22.4,14.1,29.83,WNW,292,4.0,15.0,70,0.00,,---,0.00,VWS V14.01,2013-03-12 10:25:00,
2013-03-12 05:30:00,22.4,14.1,29.83,WNW,292,3.0,15.0,70,0.00,,---,0.00,VWS V14.01,2013-03-12 10:30:00,
2013-03-12 05:32:00,22.5,13.9,29.81,NW,314,0.0,2.0,69,0.00,,OVC041,0.00,VWS V14.01,2013-03-12 10:32:00,
2013-03-12 05:35:00,22.4,14.4,29.83,WNW,292,2.0,7.0,71,0.00,,---,0.00,VWS V14.01,2013-03-12 10:35:00,
2013-03-12 05:40:00,22.4,14.4,29.83,WNW,292,3.0,10.0,71,0.00,,---,0.00,VWS V14.01,2013-03-12 10:40:00,
2013-03-12 05:42:00,22.5,13.9,29.81,NNW,333,0.0,3.0,69,0.00,,OVC041,0.00,VWS V14.01,2013-03-12 10:42:00,
2013-03-12 05:45:00,22.4,14.4,29.83,NNW,338,1.0,5.0,71,0.00,,---,0.00,VWS V14.01,2013-03-12 10:45:00,
2013-03-12 05:47:00,22.5,14.2,29.81,NW,317,0.0,9.0,70,0.00,,OVC041,0.00,VWS V14.01,2013-03-12 10:47:00,
2013-03-12 05:50:00,22.4,14.8,29.83,WNW,292,3.0,10.0,72,0.00,,---,0.00,VWS V14.01,2013-03-12 10:50:00,
2013-03-12 05:55:00,22.2,14.6,29.83,NW,315,3.0,13.0,72,0.00,,---,0.00,VWS V14.01,2013-03-12 10:55:00,
2013-03-12 05:57:00,22.5,14.2,29.81,NW,315,1.0,6.0,70,0.00,,OVC041,0.00,VWS V14.01,2013-03-12 10:57:00,
2013-03-12 06:00:00,22.2,14.9,29.83,NW,315,3.0,12.0,73,0.00,,---,0.00,VWS V14.01,2013-03-12 11:00:00,
2013-03-12 06:05:00,22.1,14.8,29.83,NNW,332,0.0,10.0,73,0.00,,,0.00,VWS V14.01,2013-03-12 11:05:00,
2013-03-12 06:07:00,22.4,14.1,29.82,WNW,301,1.0,4.0,70,0.00,,OVC050,0.00,VWS V14.01,2013-03-12 11:07:00,
2013-03-12 06:10:00,22.1,15.1,29.83,NW,315,1.0,5.0,74,0.00,,---,0.00,VWS V14.01,2013-03-12 11:10:00,
2013-03-12 06:15:00,22.1,15.1,29.83,NW,315,2.0,6.0,74,0.00,,---,0.00,VWS V14.01,2013-03-12 11:15:00,
2013-03-12 06:17:00,22.4,14.1,29.83,NW,307,2.0,12.0,70,0.00,,OVC050,0.00,VWS V14.01,2013-03-12 11:17:00,
2013-03-12 06:20:00,21.9,14.9,29.83,NNW,331,3.0,7.0,74,0.00,,,0.00,VWS V14.01,2013-03-12 11:20:00,
2013-03-12 06:22:00,22.4,14.1,29.83,West,264,4.0,10.0,70,0.00,,OVC050,0.00,VWS V14.01,2013-03-12 11:22:00,
2013-03-12 06:25:00,21.9,14.9,29.83,NNW,338,3.0,10.0,74,0.00,,---,0.00,VWS V14.01,2013-03-12 11:25:00,
2013-03-12 06:27:00,22.4,14.1,29.83,WNW,291,15.0,15.0,70,0.00,,OVC050,0.00,VWS V14.01,2013-03-12 11:27:00,
2013-03-12 06:30:00,21.9,15.2,29.84,West,274,3.0,10.0,75,0.00,,,0.00,VWS V14.01,2013-03-12 11:30:00,
2013-03-12 06:32:00,22.4,14.1,29.83,NW,309,3.0,15.0,70,0.00,,OVC050,0.00,VWS V14.01,2013-03-12 11:32:00,
2013-03-12 06:35:00,21.9,15.2,29.84,WNW,292,2.0,10.0,75,0.00,,---,0.00,VWS V14.01,2013-03-12 11:35:00,
2013-03-12 06:40:00,21.9,15.2,29.84,NW,315,2.0,6.0,75,0.00,,---,0.00,VWS V14.01,2013-03-12 11:40:00,
2013-03-12 06:42:00,22.4,14.4,29.83,WNW,295,0.0,10.0,71,0.00,,OVC050,0.00,VWS V14.01,2013-03-12 11:42:00,
2013-03-12 06:45:00,21.9,15.2,29.84,NNW,338,1.0,6.0,75,0.00,,---,0.00,VWS V14.01,2013-03-12 11:45:00,
2013-03-12 06:50:00,21.9,15.2,29.84,NW,305,3.0,8.0,75,0.00,,,0.00,VWS V14.01,2013-03-12 11:50:00,
2013-03-12 06:52:00,22.4,14.8,29.83,WNW,300,4.0,10.0,72,0.00,,OVC050,0.00,VWS V14.01,2013-03-12 11:52:00,
2013-03-12 06:55:00,21.9,14.9,29.84,NNW,338,3.0,10.0,74,0.00,,---,0.00,VWS V14.01,2013-03-12 11:55:00,
2013-03-12 07:00:00,21.9,14.9,29.84,NNW,329,9.0,9.0,74,0.00,,OVC055,0.00,VWS V14.01,2013-03-12 12:00:00,
2013-03-12 07:02:00,22.2,14.9,29.83,NW,320,3.0,12.0,73,0.00,,,0.00,VWS V14.01,2013-03-12 12:02:00,
2013-03-12 07:05:00,21.9,14.9,29.84,NNW,338,3.0,14.0,74,0.00,,---,0.00,VWS V14.01,2013-03-12 12:05:00,
2013-03-12 07:10:00,21.9,14.9,29.84,NW,315,1.0,5.0,74,0.00,,---,0.00,VWS V14.01,2013-03-12 12:10:00,
2013-03-12 07:12:00,22.1,15.1,29.83,NNW,335,5.0,5.0,74,0.00,,,0.00,VWS V14.01,2013-03-12 12:12:00,
2013-03-12 07:15:00,21.9,14.9,29.85,NNW,338,2.0,12.0,74,0.00,,---,0.00,VWS V14.01,2013-03-12 12:15:00,
2013-03-12 07:17:00,22.1,15.1,29.83,NNW,340,0.0,6.0,74,0.00,,,0.00,VWS V14.01,2013-03-12 12:17:00,
2013-03-12 07:20:00,22.1,15.1,29.85,NNW,338,3.0,9.0,74,0.00,,---,0.00,VWS V14.01,2013-03-12 12:20:00,
2013-03-12 07:25:00,22.4,15.4,29.85,NNW,338,3.0,13.0,74,0.00,,---,0.00,VWS V14.01,2013-03-12 12:25:00,
2013-03-12 07:27:00,21.9,14.9,29.83,NNW,342,2.0,10.0,74,0.00,,,0.00,VWS V14.01,2013-03-12 12:27:00,
2013-03-12 07:30:00,22.5,15.2,29.86,NNW,338,7.0,15.0,73,0.00,,---,0.00,VWS V14.01,2013-03-12 12:30:00,
2013-03-12 07:35:00,22.5,14.9,29.86,NW,315,8.0,15.0,72,0.00,,---,0.00,VWS V14.01,2013-03-12 12:35:00,
2013-03-12 07:37:00,21.9,15.2,29.84,NNW,347,2.0,10.0,75,0.00,,,0.00,VWS V14.01,2013-03-12 12:37:00,
2013-03-12 07:40:00,22.4,14.8,29.86,NNW,338,4.0,15.0,72,0.00,,---,0.00,VWS V14.01,2013-03-12 12:40:00,
2013-03-12 07:45:00,22.2,14.6,29.86,NNW,338,2.0,6.0,72,0.00,,---,0.00,VWS V14.01,2013-03-12 12:45:00,
2013-03-12 07:47:00,21.9,15.2,29.84,NNW,340,0.0,5.0,75,0.00,,,0.00,VWS V14.01,2013-03-12 12:47:00,
2013-03-12 07:50:00,22.2,14.6,29.86,NNW,338,6.0,14.0,72,0.00,,---,0.00,VWS V14.01,2013-03-12 12:50:00,
2013-03-12 07:55:00,22.4,14.8,29.86,NNW,338,3.0,10.0,72,0.00,,---,0.00,VWS V14.01,2013-03-12 12:55:00,
2013-03-12 07:57:00,21.9,14.9,29.84,NW,326,0.0,10.0,74,0.00,,,0.00,VWS V14.01,2013-03-12 12:57:00,
2013-03-12 08:00:00,22.5,14.5,29.86,NW,315,7.0,13.0,71,0.00,,---,0.00,VWS V14.01,2013-03-12 13:00:00,
2013-03-12 08:05:00,22.7,14.7,29.86,NW,315,3.0,12.0,71,0.00,,---,0.00,VWS V14.01,2013-03-12 13:05:00,
2013-03-12 08:07:00,21.9,14.9,29.84,NNW,327,0.0,14.0,74,0.00,,OVC055,0.00,VWS V14.01,2013-03-12 13:07:00,
2013-03-12 08:10:00,22.7,14.4,29.86,NW,315,7.0,15.0,70,0.00,,---,0.00,VWS V14.01,2013-03-12 13:10:00,
2013-03-12 08:12:00,21.9,14.9,29.84,NW,326,1.0,5.0,74,0.00,,OVC055,0.00,VWS V14.01,2013-03-12 13:12:00,
2013-03-12 08:15:00,22.5,14.2,29.87,NW,315,4.0,15.0,70,0.00,,---,0.00,VWS V14.01,2013-03-12 13:15:00,
2013-03-12 08:17:00,21.9,14.9,29.85,NW,323,4.0,12.0,74,0.00,,OVC055,0.00,VWS V14.01,2013-03-12 13:17:00,
2013-03-12 08:20:00,22.9,14.6,29.87,NNW,338,6.0,12.0,70,0.00,,---,0.00,VWS V14.01,2013-03-12 13:20:00,
2013-03-12 08:22:00,22.1,15.1,29.85,NNW,336,7.0,9.0,74,0.00,,OVC055,0.00,VWS V14.01,2013-03-12 13:22:00,
2013-03-12 08:25:00,23.0,14.7,29.87,NNW,338,4.0,11.0,70,0.00,,---,0.00,VWS V14.01,2013-03-12 13:25:00,
2013-03-12 08:27:00,22.4,15.4,29.85,NNW,332,10.0,13.0,74,0.00,,OVC055,0.00,VWS V14.01,2013-03-12 13:27:00,
2013-03-12 08:30:00,23.2,14.9,29.88,NW,315,4.0,11.0,70,0.00,,---,0.00,VWS V14.01,2013-03-12 13:30:00,
2013-03-12 08:35:00,23.3,14.6,29.88,NW,315,5.0,12.0,69,0.00,,---,0.00,VWS V14.01,2013-03-12 13:35:00,
2013-03-12 08:37:00,22.5,14.9,29.86,North,9,4.0,15.0,72,0.00,,OVC055,0.00,VWS V14.01,2013-03-12 13:37:00,
2013-03-12 08:40:00,23.5,14.5,29.88,NW,315,5.0,12.0,68,0.00,,---,0.00,VWS V14.01,2013-03-12 13:40:00,
2013-03-12 08:45:00,23.6,13.9,29.88,NW,315,7.0,16.0,66,0.00,,---,0.00,VWS V14.01,2013-03-12 13:45:00,
2013-03-12 08:47:00,22.2,14.6,29.86,NW,323,2.0,6.0,72,0.00,,OVC055,0.00,VWS V14.01,2013-03-12 13:47:00,
2013-03-12 08:50:00,23.8,14.1,29.88,NNW,338,5.0,13.0,66,0.00,,---,0.00,VWS V14.01,2013-03-12 13:50:00,
2013-03-12 08:52:00,22.2,14.6,29.86,NNW,327,7.0,14.0,72,0.00,,OVC055,0.00,VWS V14.01,2013-03-12 13:52:00,
2013-03-12 08:55:00,24.1,14.4,29.88,NW,315,5.0,12.0,66,0.00,,---,0.00,VWS V14.01,2013-03-12 13:55:00,
2013-03-12 08:57:00,22.4,14.8,29.86,NW,307,9.0,10.0,72,0.00,,OVC055,0.00,VWS V14.01,2013-03-12 13:57:00,
2013-03-12 09:00:00,24.1,14.1,29.88,NW,315,8.0,16.0,65,0.00,,---,0.00,VWS V14.01,2013-03-12 14:00:00,
2013-03-12 09:02:00,22.5,14.5,29.86,NW,323,2.0,13.0,71,0.00,,OVC075,0.00,VWS V14.01,2013-03-12 14:02:00,
2013-03-12 09:05:00,24.2,14.1,29.88,NW,315,5.0,11.0,65,0.00,,---,0.00,VWS V14.01,2013-03-12 14:05:00,
2013-03-12 09:07:00,22.7,14.7,29.86,NNW,329,9.0,12.0,71,0.00,,OVC075,0.00,VWS V14.01,2013-03-12 14:07:00,
2013-03-12 09:10:00,24.4,14.3,29.88,WNW,292,5.0,12.0,65,0.00,,---,0.00,VWS V14.01,2013-03-12 14:10:00,
2013-03-12 09:12:00,22.7,14.4,29.86,NW,306,9.0,14.0,70,0.00,,OVC075,0.00,VWS V14.01,2013-03-12 14:12:00,
2013-03-12 09:15:00,24.5,14.1,29.89,NW,315,7.0,14.0,64,0.00,,---,0.00,VWS V14.01,2013-03-12 14:15:00,
2013-03-12 09:17:00,22.5,14.2,29.87,NW,318,2.0,15.0,70,0.00,,OVC075,0.00,VWS V14.01,2013-03-12 14:17:00,
2013-03-12 09:20:00,24.5,14.4,29.89,WNW,292,9.0,18.0,65,0.00,,---,0.00,VWS V14.01,2013-03-12 14:20:00,
2013-03-12 09:22:00,22.9,14.6,29.87,NNW,333,11.0,12.0,70,0.00,,OVC075,0.00,VWS V14.01,2013-03-12 14:22:00,
2013-03-12 09:25:00,24.4,14.0,29.89,WNW,292,9.0,17.0,64,0.00,,---,0.00,VWS V14.01,2013-03-12 14:25:00,
2013-03-12 09:27:00,23.0,14.7,29.87,NNW,334,0.0,11.0,70,0.00,,OVC075,0.00,VWS V14.01,2013-03-12 14:27:00,
2013-03-12 09:30:00,24.4,14.0,29.90,NW,315,7.0,16.0,64,0.00,,---,0.00,VWS V14.01,2013-03-12 14:30:00,
2013-03-12 09:32:00,23.2,14.9,29.88,NW,322,6.0,11.0,70,0.00,,OVC029,0.00,VWS V14.01,2013-03-12 14:32:00,
2013-03-12 09:35:00,24.4,14.3,29.90,NNW,338,7.0,17.0,65,0.00,,---,0.00,VWS V14.01,2013-03-12 14:35:00,
2013-03-12 09:40:00,24.2,14.1,29.90,NNW,338,8.0,15.0,65,0.00,,---,0.00,VWS V14.01,2013-03-12 14:40:00,
2013-03-12 09:42:00,23.5,14.5,29.88,NW,310,2.0,12.0,68,0.00,,OVC029,0.00,VWS V14.01,2013-03-12 14:42:00,
2013-03-12 09:45:00,24.4,15.0,29.90,NNW,338,3.0,13.0,67,0.00,,---,0.00,VWS V14.01,2013-03-12 14:45:00,
2013-03-12 09:50:00,24.7,15.0,29.90,NW,315,4.0,14.0,66,0.00,,---,0.00,VWS V14.01,2013-03-12 14:50:00,
2013-03-12 09:52:00,23.8,14.1,29.88,NNW,346,1.0,13.0,66,0.00,,BKN050,0.00,VWS V14.01,2013-03-12 14:52:00,
2013-03-12 09:55:00,24.8,14.7,29.90,North,0,4.0,15.0,65,0.00,,---,0.00,VWS V14.01,2013-03-12 14:55:00,
2013-03-12 10:00:00,24.8,15.1,29.90,NNW,338,7.0,15.0,66,0.00,,---,0.00,VWS V14.01,2013-03-12 15:00:00,
2013-03-12 10:02:00,24.1,14.1,29.88,NNW,331,10.0,16.0,65,0.00,,BKN070,0.00,VWS V14.01,2013-03-12 15:02:00,
2013-03-12 10:05:00,25.3,15.6,29.90,NW,315,5.0,15.0,66,0.00,,---,0.00,VWS V14.01,2013-03-12 15:05:00,
2013-03-12 10:07:00,24.2,14.1,29.88,NW,318,2.0,11.0,65,0.00,,BKN070,0.00,VWS V14.01,2013-03-12 15:07:00,
2013-03-12 10:10:00,25.1,15.0,29.90,NW,315,6.0,14.0,65,0.00,,---,0.00,VWS V14.01,2013-03-12 15:10:00,
2013-03-12 10:12:00,24.4,14.3,29.88,NW,324,10.0,12.0,65,0.00,,BKN070,0.00,VWS V14.01,2013-03-12 15:12:00,
2013-03-12 10:15:00,25.1,15.4,29.91,NNW,338,7.0,14.0,66,0.00,,---,0.00,VWS V14.01,2013-03-12 15:15:00,
2013-03-12 10:17:00,24.5,14.1,29.89,NNW,348,7.0,14.0,64,0.00,,BKN070,0.00,VWS V14.01,2013-03-12 15:17:00,
2013-03-12 10:20:00,25.4,16.0,29.91,NNW,338,7.0,15.0,67,0.00,,---,0.00,VWS V14.01,2013-03-12 15:20:00,
2013-03-12 10:22:00,24.5,14.4,29.89,NW,318,7.0,18.0,65,0.00,,BKN070,0.00,VWS V14.01,2013-03-12 15:22:00,
2013-03-12 10:25:00,25.7,16.3,29.91,NW,315,5.0,15.0,67,0.00,,---,0.00,VWS V14.01,2013-03-12 15:25:00,
2013-03-12 10:27:00,24.4,14.0,29.89,WNW,299,12.0,17.0,64,0.00,,BKN070,0.00,VWS V14.01,2013-03-12 15:27:00,
2013-03-12 10:30:00,25.7,16.6,29.91,NW,315,8.0,16.0,68,0.00,,---,0.00,VWS V14.01,2013-03-12 15:30:00,
2013-03-12 10:35:00,25.7,16.6,29.91,NNW,338,8.0,15.0,68,0.00,,---,0.00,VWS V14.01,2013-03-12 15:35:00,
2013-03-12 10:37:00,24.4,14.3,29.90,NW,321,13.0,17.0,65,0.00,,BKN070,0.00,VWS V14.01,2013-03-12 15:37:00,
2013-03-12 10:40:00,25.7,16.6,29.91,NW,315,7.0,15.0,68,0.00,,---,0.00,VWS V14.01,2013-03-12 15:40:00,
2013-03-12 10:42:00,24.2,14.1,29.90,NW,312,11.0,15.0,65,0.00,,BKN070,0.00,VWS V14.01,2013-03-12 15:42:00,
2013-03-12 10:45:00,25.8,16.7,29.92,NNW,338,6.0,16.0,68,0.00,,---,0.00,VWS V14.01,2013-03-12 15:45:00,
2013-03-12 10:47:00,24.4,15.0,29.90,WNW,300,9.0,13.0,67,0.00,,BKN070,0.00,VWS V14.01,2013-03-12 15:47:00,
2013-03-12 10:50:00,26.4,17.3,29.92,NNW,338,7.0,15.0,68,0.00,,---,0.00,VWS V14.01,2013-03-12 15:50:00,
2013-03-12 10:52:00,24.7,15.0,29.90,West,265,2.0,14.0,66,0.00,,BKN070,0.00,VWS V14.01,2013-03-12 15:52:00,
2013-03-12 10:55:00,26.3,16.9,29.92,NW,315,7.0,17.0,67,0.00,,---,0.00,VWS V14.01,2013-03-12 15:55:00,
2013-03-12 10:57:00,24.8,14.7,29.90,NNE,19,10.0,15.0,65,0.00,,BKN070,0.00,VWS V14.01,2013-03-12 15:57:00,
2013-03-12 11:00:00,26.3,16.9,29.92,NW,315,5.0,15.0,67,0.00,,---,0.00,VWS V14.01,2013-03-12 16:00:00,
2013-03-12 11:02:00,24.8,15.1,29.90,NNW,333,3.0,14.0,66,0.00,,OVC050,0.00,VWS V14.01,2013-03-12 16:02:00,
2013-03-12 11:05:00,26.3,16.1,29.92,NNW,338,8.0,16.0,65,0.00,,---,0.00,VWS V14.01,2013-03-12 16:05:00,
2013-03-12 11:10:00,26.4,16.2,29.92,NW,315,7.0,14.0,65,0.00,,---,0.00,VWS V14.01,2013-03-12 16:10:00,
2013-03-12 11:12:00,25.1,15.0,29.90,North,5,1.0,14.0,65,0.00,,OVC050,0.00,VWS V14.01,2013-03-12 16:12:00,
2013-03-12 11:15:00,26.9,16.7,29.92,WNW,284,10.0,14.0,65,0.00,,,0.00,VWS V14.01,2013-03-12 16:15:00,
2013-03-12 11:17:00,25.1,15.4,29.91,NNW,342,10.0,14.0,66,0.00,,OVC050,0.00,VWS V14.01,2013-03-12 16:17:00,
2013-03-12 11:20:00,27.0,16.1,29.92,NNW,338,8.0,18.0,63,0.00,,---,0.00,VWS V14.01,2013-03-12 16:20:00,
2013-03-12 11:22:00,25.4,16.0,29.91,North,350,9.0,14.0,67,0.00,,OVC050,0.00,VWS V14.01,2013-03-12 16:22:00,
2013-03-12 11:25:00,27.2,16.3,29.92,NNW,338,6.0,15.0,63,0.00,,---,0.00,VWS V14.01,2013-03-12 16:25:00,
2013-03-12 11:30:00,27.3,16.0,29.92,NNW,338,4.0,14.0,62,0.00,,---,0.00,VWS V14.01,2013-03-12 16:30:00,
2013-03-12 11:32:00,25.7,16.6,29.91,WNW,292,11.0,16.0,68,0.00,,OVC050,0.00,VWS V14.01,2013-03-12 16:32:00,
2013-03-12 11:35:00,27.5,15.8,29.92,NNW,338,5.0,14.0,61,0.00,,---,0.00,VWS V14.01,2013-03-12 16:35:00,
2013-03-12 11:37:00,25.7,16.6,29.91,NW,323,10.0,14.0,68,0.00,,OVC050,0.00,VWS V14.01,2013-03-12 16:37:00,
2013-03-12 11:40:00,27.6,15.6,29.92,NW,315,9.0,18.0,60,0.00,,---,0.00,VWS V14.01,2013-03-12 16:40:00,
2013-03-12 11:45:00,27.8,15.0,29.92,NW,315,3.0,15.0,58,0.00,,,0.00,VWS V14.01,2013-03-12 16:45:00,
2013-03-12 11:47:00,25.8,16.7,29.92,NNW,344,2.0,16.0,68,0.00,,OVC050,0.00,VWS V14.01,2013-03-12 16:47:00,
2013-03-12 11:50:00,27.9,15.4,29.92,NNW,338,8.0,20.0,59,0.00,,---,0.00,VWS V14.01,2013-03-12 16:50:00,
2013-03-12 11:55:00,28.1,15.2,29.92,NW,315,9.0,21.0,58,0.00,,---,0.00,VWS V14.01,2013-03-12 16:55:00,
2013-03-12 11:57:00,26.3,16.9,29.92,NNW,329,2.0,16.0,67,0.00,,OVC050,0.00,VWS V14.01,2013-03-12 16:57:00,
2013-03-12 12:00:00,27.9,15.4,29.93,NNW,338,12.0,21.0,59,0.00,,---,0.00,VWS V14.01,2013-03-12 17:00:00,
2013-03-12 12:02:00,26.3,16.9,29.92,WNW,286,7.0,15.0,67,0.00,,,0.00,VWS V14.01,2013-03-12 17:02:00,
2013-03-12 12:05:00,27.3,14.5,29.93,NNW,338,11.0,22.0,58,0.00,,---,0.00,VWS V14.01,2013-03-12 17:05:00,
2013-03-12 12:10:00,27.5,15.1,29.93,NNW,338,7.0,18.0,59,0.00,,---,0.00,VWS V14.01,2013-03-12 17:10:00,
2013-03-12 12:12:00,26.4,16.2,29.92,NW,321,0.0,14.0,65,0.00,,,0.00,VWS V14.01,2013-03-12 17:12:00,
2013-03-12 12:15:00,27.6,14.8,29.93,NNW,338,11.0,18.0,58,0.00,,---,0.00,VWS V14.01,2013-03-12 17:15:00,
2013-03-12 12:20:00,27.6,15.2,29.93,NNW,338,11.0,19.0,59,0.00,,---,0.00,VWS V14.01,2013-03-12 17:20:00,
2013-03-12 12:22:00,27.0,16.1,29.92,NNW,328,7.0,18.0,63,0.00,,,0.00,VWS V14.01,2013-03-12 17:22:00,
2013-03-12 12:25:00,27.9,15.4,29.93,NNW,338,9.0,19.0,59,0.00,,---,0.00,VWS V14.01,2013-03-12 17:25:00,
2013-03-12 12:30:00,27.9,15.1,29.93,NW,315,9.0,20.0,58,0.00,,---,0.00,VWS V14.01,2013-03-12 17:30:00,
2013-03-12 12:35:00,27.8,15.4,29.93,NNW,338,9.0,20.0,59,0.00,,---,0.00,VWS V14.01,2013-03-12 17:35:00,
2013-03-12 12:37:00,27.5,15.8,29.92,West,281,4.0,14.0,61,0.00,,,0.00,VWS V14.01,2013-03-12 17:37:00,
2013-03-12 12:40:00,27.3,14.1,29.93,NNW,338,11.0,19.0,57,0.00,,---,0.00,VWS V14.01,2013-03-12 17:40:00,
2013-03-12 12:42:00,27.6,15.6,29.92,NW,307,10.0,18.0,60,0.00,,,0.00,VWS V14.01,2013-03-12 17:42:00,
2013-03-12 12:45:00,27.5,14.7,29.93,NNW,338,10.0,19.0,58,0.00,,---,0.00,VWS V14.01,2013-03-12 17:45:00,
2013-03-12 12:50:00,27.5,14.7,29.93,NNW,338,10.0,22.0,58,0.00,,---,0.00,VWS V14.01,2013-03-12 17:50:00,
2013-03-12 12:52:00,27.9,15.4,29.92,NNW,332,3.0,20.0,59,0.00,,,0.00,VWS V14.01,2013-03-12 17:52:00,
2013-03-12 12:55:00,27.2,14.8,29.93,NNW,338,9.0,21.0,59,0.00,,---,0.00,VWS V14.01,2013-03-12 17:55:00,
2013-03-12 12:57:00,28.1,15.2,29.92,NNW,327,2.0,21.0,58,0.00,,,0.00,VWS V14.01,2013-03-12 17:57:00,
2013-03-12 13:00:00,27.3,14.9,29.94,NNW,338,12.0,22.0,59,0.00,,---,0.00,VWS V14.01,2013-03-12 18:00:00,
2013-03-12 13:05:00,27.2,14.8,29.94,NNW,338,6.0,16.0,59,0.00,,---,0.00,VWS V14.01,2013-03-12 18:05:00,
2013-03-12 13:07:00,27.3,14.5,29.93,North,350,9.0,22.0,58,0.00,,BKN034,0.00,VWS V14.01,2013-03-12 18:07:00,
2013-03-12 13:10:00,27.5,14.7,29.94,NNW,338,12.0,20.0,58,0.00,,---,0.00,VWS V14.01,2013-03-12 18:10:00,
2013-03-12 13:15:00,27.5,14.7,29.93,NNW,338,12.0,18.0,58,0.00,,---,0.00,VWS V14.01,2013-03-12 18:15:00,
2013-03-12 13:17:00,27.6,14.8,29.93,North,351,7.0,18.0,58,0.00,,BKN034,0.00,VWS V14.01,2013-03-12 18:17:00,
2013-03-12 13:20:00,27.8,14.6,29.93,NNW,338,13.0,20.0,57,0.00,,---,0.00,VWS V14.01,2013-03-12 18:20:00,
2013-03-12 13:22:00,27.6,15.2,29.93,NNW,345,13.0,19.0,59,0.00,,BKN034,0.00,VWS V14.01,2013-03-12 18:22:00,
2013-03-12 13:25:00,27.9,14.2,29.93,NW,315,12.0,23.0,56,0.00,,---,0.00,VWS V14.01,2013-03-12 18:25:00,
2013-03-12 13:27:00,27.9,15.4,29.93,North,11,1.0,19.0,59,0.00,,BKN034,0.00,VWS V14.01,2013-03-12 18:27:00,
2013-03-12 13:30:00,27.8,14.6,29.93,NNW,338,9.0,20.0,57,0.00,,---,0.00,VWS V14.01,2013-03-12 18:30:00,
2013-03-12 13:32:00,27.9,15.1,29.93,NNW,329,15.0,20.0,58,0.00,,BKN034,0.00,VWS V14.01,2013-03-12 18:32:00,
2013-03-12 13:35:00,27.8,14.6,29.93,NNW,338,8.0,17.0,57,0.00,,---,0.00,VWS V14.01,2013-03-12 18:35:00,
2013-03-12 13:37:00,27.8,15.4,29.93,NNW,344,9.0,20.0,59,0.00,,BKN034,0.00,VWS V14.01,2013-03-12 18:37:00,
2013-03-12 13:40:00,27.8,15.7,29.93,WNW,292,11.0,20.0,60,0.00,,---,0.00,VWS V14.01,2013-03-12 18:40:00,
2013-03-12 13:42:00,27.3,14.1,29.93,NNW,327,14.0,18.0,57,0.00,,BKN034,0.00,VWS V14.01,2013-03-12 18:42:00,
2013-03-12 13:45:00,27.9,16.6,29.93,NW,315,7.0,20.0,62,0.00,,---,0.00,VWS V14.01,2013-03-12 18:45:00,
2013-03-12 13:47:00,27.5,14.7,29.93,NNW,348,1.0,19.0,58,0.00,,BKN034,0.00,VWS V14.01,2013-03-12 18:47:00,
2013-03-12 13:50:00,27.9,16.6,29.93,WNW,292,10.0,21.0,62,0.00,,---,0.00,VWS V14.01,2013-03-12 18:50:00,
2013-03-12 13:55:00,28.1,16.4,29.93,NNW,338,6.0,18.0,61,0.00,,---,0.00,VWS V14.01,2013-03-12 18:55:00,
2013-03-12 13:57:00,27.2,14.8,29.93,North,355,11.0,21.0,59,0.00,,BKN034,0.00,VWS V14.01,2013-03-12 18:57:00,
2013-03-12 14:00:00,28.1,15.2,29.93,NNW,338,10.0,20.0,58,0.00,,---,0.00,VWS V14.01,2013-03-12 19:00:00,
2013-03-12 14:05:00,28.4,15.9,29.93,WNW,292,5.0,13.0,59,0.00,,---,0.00,VWS V14.01,2013-03-12 19:05:00,
2013-03-12 14:07:00,27.2,14.8,29.94,NW,308,12.0,16.0,59,0.00,,OVC034,0.00,VWS V14.01,2013-03-12 19:07:00,
2013-03-12 14:10:00,28.7,16.2,29.93,WNW,292,5.0,17.0,59,0.00,,---,0.00,VWS V14.01,2013-03-12 19:10:00,
2013-03-12 14:12:00,27.5,14.7,29.94,NNW,342,17.0,19.0,58,0.00,,OVC034,0.00,VWS V14.01,2013-03-12 19:12:00,
2013-03-12 14:15:00,28.7,16.2,29.93,NW,315,4.0,15.0,59,0.00,,---,0.00,VWS V14.01,2013-03-12 19:15:00,
2013-03-12 14:17:00,27.5,14.7,29.93,NW,319,13.0,18.0,58,0.00,,,0.00,VWS V14.01,2013-03-12 19:17:00,
2013-03-12 14:20:00,28.5,14.4,29.93,NNW,338,9.0,23.0,55,0.00,,---,0.00,VWS V14.01,2013-03-12 19:20:00,
2013-03-12 14:25:00,28.8,14.3,29.93,NW,315,11.0,21.0,54,0.00,,---,0.00,VWS V14.01,2013-03-12 19:25:00,
2013-03-12 14:27:00,27.9,14.2,29.93,NW,313,12.0,23.0,56,0.00,,,0.00,VWS V14.01,2013-03-12 19:27:00,
2013-03-12 14:30:00,28.5,14.0,29.94,NW,315,11.0,23.0,54,0.00,,---,0.00,VWS V14.01,2013-03-12 19:30:00,
2013-03-12 14:32:00,27.8,14.6,29.93,North,5,12.0,20.0,57,0.00,,,0.00,VWS V14.01,2013-03-12 19:32:00,
2013-03-12 14:35:00,28.1,12.8,29.94,North,0,9.0,20.0,52,0.00,,---,0.00,VWS V14.01,2013-03-12 19:35:00,
2013-03-12 14:37:00,27.8,14.6,29.93,NW,318,14.0,16.0,57,0.00,,,0.00,VWS V14.01,2013-03-12 19:37:00,
2013-03-12 14:40:00,28.1,13.2,29.94,North,0,11.0,22.0,53,0.00,,---,0.00,VWS V14.01,2013-03-12 19:40:00,
2013-03-12 14:45:00,28.5,13.1,29.94,North,0,9.0,20.0,52,0.00,,---,0.00,VWS V14.01,2013-03-12 19:45:00,
2013-03-12 14:50:00,28.7,12.9,29.94,NNW,338,10.0,24.0,51,0.00,,---,0.00,VWS V14.01,2013-03-12 19:50:00,
2013-03-12 14:52:00,27.9,16.6,29.93,North,5,1.0,21.0,62,0.00,,,0.00,VWS V14.01,2013-03-12 19:52:00,
2013-03-12 14:55:00,29.0,13.6,29.94,NNW,338,7.0,17.0,52,0.00,,---,0.00,VWS V14.01,2013-03-12 19:55:00,
2013-03-12 14:57:00,28.1,16.4,29.93,NW,321,18.0,18.0,61,0.00,,,0.00,VWS V14.01,2013-03-12 19:57:00,
2013-03-12 15:00:00,28.7,12.4,29.95,NNW,338,11.0,20.0,50,0.00,,---,0.00,VWS V14.01,2013-03-12 20:00:00,
2013-03-12 15:05:00,28.8,13.0,29.95,NNW,338,10.0,24.0,51,0.00,,---,0.00,VWS V14.01,2013-03-12 20:05:00,
2013-03-12 15:07:00,28.4,15.9,29.93,NW,322,5.0,13.0,59,0.00,,,0.00,VWS V14.01,2013-03-12 20:07:00,
2013-03-12 15:10:00,29.0,12.2,29.95,NW,315,12.0,24.0,49,0.00,,---,0.00,VWS V14.01,2013-03-12 20:10:00,
2013-03-12 15:12:00,28.7,16.2,29.93,NW,321,5.0,17.0,59,0.00,,,0.00,VWS V14.01,2013-03-12 20:12:00,
2013-03-12 15:15:00,29.1,12.8,29.95,NNW,338,9.0,20.0,50,0.00,,---,0.00,VWS V14.01,2013-03-12 20:15:00,
2013-03-12 15:20:00,28.8,11.6,29.95,North,0,8.0,20.0,48,0.00,,---,0.00,VWS V14.01,2013-03-12 20:20:00,
2013-03-12 15:22:00,28.5,14.4,29.93,NNW,327,1.0,20.0,55,0.00,,,0.00,VWS V14.01,2013-03-12 20:22:00,
2013-03-12 15:25:00,28.4,11.2,29.95,NNW,338,10.0,18.0,48,0.00,,---,0.00,VWS V14.01,2013-03-12 20:25:00,
2013-03-12 15:30:00,28.2,11.5,29.96,NNW,338,9.0,23.0,49,0.00,,---,0.00,VWS V14.01,2013-03-12 20:30:00,
2013-03-12 15:32:00,28.5,14.0,29.94,NNE,17,11.0,23.0,54,0.00,,,0.00,VWS V14.01,2013-03-12 20:32:00,
2013-03-12 15:35:00,28.5,11.8,29.96,NNW,338,8.0,18.0,49,0.00,,---,0.00,VWS V14.01,2013-03-12 20:35:00,
2013-03-12 15:40:00,28.5,10.9,29.96,NNW,338,9.0,26.0,47,0.00,,---,0.00,VWS V14.01,2013-03-12 20:40:00,
2013-03-12 15:42:00,28.1,13.2,29.94,NNW,342,4.0,22.0,53,0.00,,,0.00,VWS V14.01,2013-03-12 20:42:00,
2013-03-12 15:45:00,28.8,11.1,29.96,NNW,338,11.0,22.0,47,0.00,,---,0.00,VWS V14.01,2013-03-12 20:45:00,
2013-03-12 15:50:00,29.0,11.8,29.96,NNW,338,10.0,24.0,48,0.00,,---,0.00,VWS V14.01,2013-03-12 20:50:00,
2013-03-12 15:52:00,28.7,12.9,29.94,NW,324,12.0,24.0,51,0.00,,,0.00,VWS V14.01,2013-03-12 20:52:00,
2013-03-12 15:55:00,29.4,11.2,29.96,NNW,338,9.0,21.0,46,0.00,,---,0.00,VWS V14.01,2013-03-12 20:55:00,
2013-03-12 15:57:00,29.0,13.6,29.94,NNW,327,14.0,17.0,52,0.00,,,0.00,VWS V14.01,2013-03-12 20:57:00,
2013-03-12 16:00:00,29.5,10.3,29.97,NNW,338,10.0,21.0,44,0.00,,---,0.00,VWS V14.01,2013-03-12 21:00:00,
2013-03-12 16:05:00,29.4,10.2,29.97,NNW,338,10.0,19.0,44,0.00,,---,0.00,VWS V14.01,2013-03-12 21:05:00,
2013-03-12 16:07:00,28.8,13.0,29.95,NNW,336,10.0,24.0,51,0.00,,OVC049,0.00,VWS V14.01,2013-03-12 21:07:00,
2013-03-12 16:10:00,29.1,10.4,29.97,NNW,338,9.0,18.0,45,0.00,,---,0.00,VWS V14.01,2013-03-12 21:10:00,
2013-03-12 16:12:00,29.0,12.2,29.95,NNW,342,11.0,24.0,49,0.00,,OVC049,0.00,VWS V14.01,2013-03-12 21:12:00,
2013-03-12 16:15:00,29.4,11.2,29.97,NNW,338,7.0,21.0,46,0.00,,---,0.00,VWS V14.01,2013-03-12 21:15:00,
2013-03-12 16:20:00,29.1,9.9,29.97,NNW,338,11.0,21.0,44,0.00,,---,0.00,VWS V14.01,2013-03-12 21:20:00,
2013-03-12 16:22:00,28.8,11.6,29.95,NNW,344,9.0,20.0,48,0.00,,OVC049,0.00,VWS V14.01,2013-03-12 21:22:00,
2013-03-12 16:25:00,29.0,9.8,29.97,NNW,338,11.0,20.0,44,0.00,,---,0.00,VWS V14.01,2013-03-12 21:25:00,
2013-03-12 16:27:00,28.4,11.2,29.95,NW,321,18.0,18.0,48,0.00,,OVC049,0.00,VWS V14.01,2013-03-12 21:27:00,
2013-03-12 16:30:00,28.8,9.6,29.98,NW,315,11.0,19.0,44,0.00,,---,0.00,VWS V14.01,2013-03-12 21:30:00,
2013-03-12 16:32:00,28.2,11.5,29.96,NNW,338,4.0,21.0,49,0.00,,OVC049,0.00,VWS V14.01,2013-03-12 21:32:00,
2013-03-12 16:35:00,28.8,9.6,29.98,NNW,338,11.0,24.0,44,0.00,,---,0.00,VWS V14.01,2013-03-12 21:35:00,
2013-03-12 16:40:00,28.7,10.1,29.98,NNW,338,11.0,20.0,45,0.00,,---,0.00,VWS V14.01,2013-03-12 21:40:00,
2013-03-12 16:45:00,28.5,9.9,29.99,NNW,338,10.0,21.0,45,0.00,,---,0.00,VWS V14.01,2013-03-12 21:45:00,
2013-03-12 16:50:00,28.4,10.8,29.99,NNW,338,6.0,19.0,47,0.00,,---,0.00,VWS V14.01,2013-03-12 21:50:00,
2013-03-12 16:55:00,28.2,9.6,29.99,NNW,338,11.0,20.0,45,0.00,,---,0.00,VWS V14.01,2013-03-12 21:55:00,
2013-03-12 17:00:00,28.2,10.1,29.99,North,0,8.0,19.0,46,0.00,,---,0.00,VWS V14.01,2013-03-12 22:00:00,
2013-03-12 17:05:00,28.1,9.5,29.99,NNW,338,9.0,19.0,45,0.00,,---,0.00,VWS V14.01,2013-03-12 22:05:00,
2013-03-12 17:10:00,28.2,10.6,29.99,NNW,338,5.0,13.0,47,0.00,,---,0.00,VWS V14.01,2013-03-12 22:10:00,
2013-03-12 17:15:00,28.1,10.5,30.00,North,0,8.0,17.0,47,0.00,,---,0.00,VWS V14.01,2013-03-12 22:15:00,
2013-03-12 17:20:00,27.8,10.2,30.00,North,0,7.0,16.0,47,0.00,,---,0.00,VWS V14.01,2013-03-12 22:20:00,
2013-03-12 17:25:00,27.6,10.5,30.00,NNW,338,7.0,17.0,48,0.00,,---,0.00,VWS V14.01,2013-03-12 22:25:00,
2013-03-12 17:30:00,27.3,10.7,30.01,NNW,338,12.0,22.0,49,0.00,,---,0.00,VWS V14.01,2013-03-12 22:30:00,
2013-03-12 17:35:00,27.2,10.6,30.01,NNW,338,12.0,23.0,49,0.00,,---,0.00,VWS V14.01,2013-03-12 22:35:00,
2013-03-12 17:40:00,27.0,10.9,30.01,NNW,338,8.0,17.0,50,0.00,,---,0.00,VWS V14.01,2013-03-12 22:40:00,
2013-03-12 17:45:00,26.9,10.8,30.02,North,0,13.0,21.0,50,0.00,,---,0.00,VWS V14.01,2013-03-12 22:45:00,
2013-03-12 17:50:00,26.9,10.8,30.02,North,0,8.0,16.0,50,0.00,,---,0.00,VWS V14.01,2013-03-12 22:50:00,
2013-03-12 17:55:00,26.6,10.5,30.02,North,0,12.0,21.0,50,0.00,,---,0.00,VWS V14.01,2013-03-12 22:55:00,
2013-03-12 18:00:00,26.6,10.5,30.03,North,0,9.0,18.0,50,0.00,,---,0.00,VWS V14.01,2013-03-12 23:00:00,
2013-03-12 18:05:00,26.4,10.3,30.03,North,0,12.0,21.0,50,0.00,,---,0.00,VWS V14.01,2013-03-12 23:05:00,
2013-03-12 18:10:00,26.3,10.6,30.03,North,0,6.0,16.0,51,0.00,,---,0.00,VWS V14.01,2013-03-12 23:10:00,
2013-03-12 18:15:00,26.3,10.6,30.04,NNW,338,8.0,18.0,51,0.00,,---,0.00,VWS V14.01,2013-03-12 23:15:00,
2013-03-12 18:20:00,26.1,10.9,30.04,North,0,8.0,14.0,52,0.00,,---,0.00,VWS V14.01,2013-03-12 23:20:00,
2013-03-12 18:25:00,26.0,10.4,30.04,North,0,8.0,18.0,51,0.00,,---,0.00,VWS V14.01,2013-03-12 23:25:00,
2013-03-12 18:30:00,26.0,10.8,30.05,North,0,10.0,17.0,52,0.00,,---,0.00,VWS V14.01,2013-03-12 23:30:00,
2013-03-12 18:35:00,26.0,11.2,30.05,North,0,9.0,17.0,53,0.00,,---,0.00,VWS V14.01,2013-03-12 23:35:00,
2013-03-12 18:40:00,25.8,11.0,30.05,North,0,7.0,15.0,53,0.00,,---,0.00,VWS V14.01,2013-03-12 23:40:00,
2013-03-12 18:45:00,25.7,11.4,30.06,North,0,5.0,13.0,54,0.00,,---,0.00,VWS V14.01,2013-03-12 23:45:00,
2013-03-12 18:50:00,25.7,11.4,30.06,North,0,9.0,20.0,54,0.00,,---,0.00,VWS V14.01,2013-03-12 23:50:00,
2013-03-12 18:55:00,25.7,11.8,30.06,North,0,5.0,14.0,55,0.00,,---,0.00,VWS V14.01,2013-03-12 23:55:00,
2013-03-12 19:00:00,25.7,12.2,30.07,North,0,6.0,14.0,56,0.00,,---,0.00,VWS V14.01,2013-03-13 00:00:00,
2013-03-12 19:05:00,25.6,12.5,30.07,NNW,338,7.0,16.0,57,0.00,,---,0.00,VWS V14.01,2013-03-13 00:05:00,
2013-03-12 19:07:00,26.4,10.3,30.03,NNE,28,10.0,12.0,50,0.00,,OVC049,0.00,VWS V14.01,2013-03-13 00:07:00,
2013-03-12 19:10:00,25.6,12.1,30.07,NNW,338,8.0,18.0,56,0.00,,---,0.00,VWS V14.01,2013-03-13 00:10:00,
2013-03-12 19:15:00,25.4,12.7,30.08,NNW,338,5.0,18.0,58,0.00,,---,0.00,VWS V14.01,2013-03-13 00:15:00,
2013-03-12 19:17:00,26.3,10.6,30.04,NNE,15,10.0,18.0,51,0.00,,OVC050,0.00,VWS V14.01,2013-03-13 00:17:00,
2013-03-12 19:20:00,25.4,12.7,30.08,NNW,338,10.0,18.0,58,0.00,,---,0.00,VWS V14.01,2013-03-13 00:20:00,
2013-03-12 19:22:00,26.1,10.9,30.04,North,11,7.0,14.0,52,0.00,,OVC050,0.00,VWS V14.01,2013-03-13 00:22:00,
2013-03-12 19:25:00,25.4,12.7,30.08,NNW,338,7.0,15.0,58,0.00,,---,0.00,VWS V14.01,2013-03-13 00:25:00,
2013-03-12 19:30:00,25.3,12.6,30.08,NNW,338,5.0,11.0,58,0.00,,---,0.00,VWS V14.01,2013-03-13 00:30:00,
2013-03-12 19:32:00,26.0,10.8,30.05,NNE,14,7.0,17.0,52,0.00,,OVC050,0.00,VWS V14.01,2013-03-13 00:32:00,
2013-03-12 19:35:00,25.3,12.6,30.08,NNW,338,3.0,11.0,58,0.00,,---,0.00,VWS V14.01,2013-03-13 00:35:00,
2013-03-12 19:40:00,25.1,12.8,30.08,NNW,338,4.0,13.0,59,0.00,,---,0.00,VWS V14.01,2013-03-13 00:40:00,
2013-03-12 19:42:00,25.8,11.0,30.05,North,11,4.0,15.0,53,0.00,,OVC050,0.00,VWS V14.01,2013-03-13 00:42:00,
2013-03-12 19:45:00,25.0,12.7,30.09,NNW,338,6.0,14.0,59,0.00,,---,0.00,VWS V14.01,2013-03-13 00:45:00,
2013-03-12 19:47:00,25.7,11.4,30.06,North,9,7.0,13.0,54,0.00,,OVC050,0.00,VWS V14.01,2013-03-13 00:47:00,
2013-03-12 19:50:00,25.0,12.7,30.09,NNW,338,6.0,15.0,59,0.00,,---,0.00,VWS V14.01,2013-03-13 00:50:00,
2013-03-12 19:52:00,25.7,11.4,30.06,NNE,12,0.0,16.0,54,0.00,,OVC050,0.00,VWS V14.01,2013-03-13 00:52:00,
2013-03-12 19:55:00,24.8,12.1,30.09,NNW,338,4.0,14.0,58,0.00,,---,0.00,VWS V14.01,2013-03-13 00:55:00,
2013-03-12 20:00:00,24.8,12.5,30.10,NNW,338,4.0,12.0,59,0.00,,---,0.00,VWS V14.01,2013-03-13 01:00:00,
2013-03-12 20:02:00,25.7,12.2,30.07,NNW,336,12.0,14.0,56,0.00,,OVC075,0.00,VWS V14.01,2013-03-13 01:02:00,
2013-03-12 20:05:00,24.7,12.4,30.10,NNW,338,7.0,14.0,59,0.00,,---,0.00,VWS V14.01,2013-03-13 01:05:00,
2013-03-12 20:07:00,25.6,12.5,30.07,NW,307,10.0,16.0,57,0.00,,OVC075,0.00,VWS V14.01,2013-03-13 01:07:00,
2013-03-12 20:12:00,25.6,12.1,30.07,NNW,348,15.0,18.0,56,0.00,,OVC075,0.00,VWS V14.01,2013-03-13 01:12:00,
2013-03-12 20:20:00,24.4,11.8,30.10,North,351,0.0,7.0,58,0.00,,---,0.00,VWS V14.01,2013-03-13 01:20:00,
2013-03-12 20:22:00,25.4,12.7,30.08,North,9,1.0,18.0,58,0.00,,OVC075,0.00,VWS V14.01,2013-03-13 01:22:00,
2013-03-12 20:25:00,24.4,11.4,30.10,NNW,327,1.0,11.0,57,0.00,,---,0.00,VWS V14.01,2013-03-13 01:25:00,
2013-03-12 20:27:00,25.4,12.7,30.08,NW,319,11.0,15.0,58,0.00,,OVC075,0.00,VWS V14.01,2013-03-13 01:27:00,
2013-03-12 20:30:00,24.2,11.2,30.11,NNW,338,4.0,11.0,57,0.00,,OVC050,0.00,VWS V14.01,2013-03-13 01:30:00,
2013-03-12 20:35:00,24.1,11.1,30.11,North,9,6.0,13.0,57,0.00,,---,0.00,VWS V14.01,2013-03-13 01:35:00,
2013-03-12 20:40:00,24.1,11.1,30.11,NW,314,7.0,11.0,57,0.00,,OVC050,0.00,VWS V14.01,2013-03-13 01:40:00,
2013-03-12 20:42:00,25.1,12.8,30.08,North,350,3.0,3.0,59,0.00,,OVC075,0.00,VWS V14.01,2013-03-13 01:42:00,
2013-03-12 20:45:00,23.9,10.9,30.12,NNW,347,0.0,13.0,57,0.00,,OVC050,0.00,VWS V14.01,2013-03-13 01:45:00,
2013-03-12 20:50:00,23.8,10.8,30.12,North,351,0.0,7.0,57,0.00,,OVC050,0.00,VWS V14.01,2013-03-13 01:50:00,
2013-03-12 20:52:00,25.0,12.7,30.09,North,351,2.0,15.0,59,0.00,,OVC075,0.00,VWS V14.01,2013-03-13 01:52:00,
2013-03-12 20:55:00,23.6,10.6,30.12,NNW,338,2.0,10.0,57,0.00,,OVC050,0.00,VWS V14.01,2013-03-13 01:55:00,
2013-03-12 20:57:00,24.8,12.1,30.09,NNW,335,9.0,14.0,58,0.00,,OVC075,0.00,VWS V14.01,2013-03-13 01:57:00,
2013-03-12 21:00:00,23.6,10.2,30.12,NNW,336,1.0,13.0,56,0.00,,FEW044,0.00,VWS V14.01,2013-03-13 02:00:00,
2013-03-12 21:05:00,23.6,10.2,30.12,NW,317,2.0,13.0,56,0.00,,FEW044,0.00,VWS V14.01,2013-03-13 02:05:00,
2013-03-12 21:10:00,23.5,10.1,30.12,North,360,0.0,11.0,56,0.00,,FEW044,0.00,VWS V14.01,2013-03-13 02:10:00,
2013-03-12 21:15:00,23.5,10.1,30.13,NW,323,0.0,12.0,56,0.00,,FEW044,0.00,VWS V14.01,2013-03-13 02:15:00,
2013-03-12 21:20:00,23.3,9.9,30.13,North,355,1.0,5.0,56,0.00,,FEW044,0.00,VWS V14.01,2013-03-13 02:20:00,
2013-03-12 21:25:00,23.2,10.2,30.13,NW,306,4.0,4.0,57,0.00,,FEW044,0.00,VWS V14.01,2013-03-13 02:25:00,
2013-03-12 21:30:00,23.0,10.1,30.13,NNW,339,5.0,10.0,57,0.00,,FEW044,0.00,VWS V14.01,2013-03-13 02:30:00,
2013-03-12 21:35:00,22.9,9.6,30.13,NNW,332,2.0,11.0,56,0.00,,FEW044,0.00,VWS V14.01,2013-03-13 02:35:00,
2013-03-12 21:40:00,22.9,9.6,30.13,North,355,0.0,10.0,56,0.00,,FEW044,0.00,VWS V14.01,2013-03-13 02:40:00,
2013-03-12 21:45:00,22.7,9.8,30.14,North,360,0.0,6.0,57,0.00,,FEW044,0.00,VWS V14.01,2013-03-13 02:45:00,
2013-03-12 21:50:00,22.5,9.6,30.14,NNW,344,0.0,3.0,57,0.00,,FEW044,0.00,VWS V14.01,2013-03-13 02:50:00,
2013-03-12 21:55:00,22.4,9.5,30.14,NNW,342,3.0,9.0,57,0.00,,FEW044,0.00,VWS V14.01,2013-03-13 02:55:00,
2013-03-12 22:00:00,22.2,9.3,30.15,NNW,343,2.0,4.0,57,0.00,,CLR,0.00,VWS V14.01,2013-03-13 03:00:00,
2013-03-12 22:05:00,22.2,9.3,30.15,NW,325,2.0,9.0,57,0.00,,CLR,0.00,VWS V14.01,2013-03-13 03:05:00,
2013-03-12 22:10:00,22.2,9.3,30.15,NNW,347,0.0,9.0,57,0.00,,CLR,0.00,VWS V14.01,2013-03-13 03:10:00,
2013-03-12 22:15:00,22.1,8.8,30.15,NNW,342,0.0,10.0,56,0.00,,CLR,0.00,VWS V14.01,2013-03-13 03:15:00,
2013-03-12 22:20:00,22.1,8.8,30.15,NNW,327,0.0,3.0,56,0.00,,CLR,0.00,VWS V14.01,2013-03-13 03:20:00,
2013-03-12 22:25:00,21.9,9.0,30.15,NW,314,0.0,2.0,57,0.00,,CLR,0.00,VWS V14.01,2013-03-13 03:25:00,
2013-03-12 22:30:00,21.6,8.7,30.15,WNW,297,0.0,3.0,57,0.00,,CLR,0.00,VWS V14.01,2013-03-13 03:30:00,
2013-03-12 22:35:00,21.4,8.6,30.15,WNW,295,1.0,7.0,57,0.00,,CLR,0.00,VWS V14.01,2013-03-13 03:35:00,
2013-03-12 22:40:00,21.0,8.9,30.15,WNW,300,0.0,13.0,59,0.00,,CLR,0.00,VWS V14.01,2013-03-13 03:40:00,
2013-03-12 22:45:00,20.6,8.9,30.17,WNW,303,3.0,13.0,60,0.00,,CLR,0.00,VWS V14.01,2013-03-13 03:45:00,
2013-03-12 22:50:00,20.3,9.4,30.17,NW,309,9.0,10.0,62,0.00,,CLR,0.00,VWS V14.01,2013-03-13 03:50:00,
2013-03-12 22:55:00,20.2,9.6,30.17,NW,324,6.0,11.0,63,0.00,,CLR,0.00,VWS V14.01,2013-03-13 03:55:00,
2013-03-12 23:00:00,20.0,9.8,30.17,WNW,300,9.0,10.0,64,0.00,,CLR,0.00,VWS V14.01,2013-03-13 04:00:00,
2013-03-12 23:05:00,19.9,10.1,30.17,NNW,331,3.0,12.0,65,0.00,,CLR,0.00,VWS V14.01,2013-03-13 04:05:00,
2013-03-12 23:10:00,19.7,10.2,30.17,NNW,333,3.0,12.0,66,0.00,,CLR,0.00,VWS V14.01,2013-03-13 04:10:00,
2013-03-12 23:15:00,19.5,10.3,30.17,NW,309,0.0,10.0,67,0.00,,CLR,0.00,VWS V14.01,2013-03-13 04:15:00,
2013-03-12 23:20:00,19.4,10.2,30.17,NW,322,9.0,11.0,67,0.00,,CLR,0.00,VWS V14.01,2013-03-13 04:20:00,
2013-03-12 23:25:00,19.2,10.4,30.17,NW,304,9.0,10.0,68,0.00,,CLR,0.00,VWS V14.01,2013-03-13 04:25:00,
2013-03-12 23:30:00,19.1,10.3,30.17,NNW,327,0.0,9.0,68,0.00,,CLR,0.00,VWS V14.01,2013-03-13 04:30:00,
2013-03-12 23:35:00,18.9,10.4,30.17,NW,317,2.0,11.0,69,0.00,,CLR,0.00,VWS V14.01,2013-03-13 04:35:00,
2013-03-12 23:40:00,18.9,10.4,30.17,NW,304,4.0,11.0,69,0.00,,CLR,0.00,VWS V14.01,2013-03-13 04:40:00,
2013-03-12 23:45:00,18.8,10.6,30.18,NW,315,10.0,12.0,70,0.00,,CLR,0.00,VWS V14.01,2013-03-13 04:45:00,
2013-03-12 23:50:00,18.8,11.0,30.18,NW,306,0.0,10.0,71,0.00,,CLR,0.00,VWS V14.01,2013-03-13 04:50:00,
2013-03-12 23:55:00,18.6,10.8,30.18,NNW,329,0.0,10.0,71,0.00,,CLR,0.00,VWS V14.01,2013-03-13 04:55:00,